Skip Page Navigation
NASA JPL Caltech
NASA Logo - Jet Propulsion Laboratory + View the NASA Portal
+ Center for Near-Earth Object Studies
JPL Home Earth Solar System Stars & Galaxies Technology
JPL Solar System Dynamics
BODIES ORBITS EPHEMERIDES TOOLS PHYSICAL DATA DISCOVERY FAQ SITE MAP
IMPORTANT: The SSD Announcement email list is now available. Major changes are coming in the near future, including possible hostname and/or URL changes. To be notified of such changes, subscribe to this email list.

Please visit this page for more details.


JPL Small-Body Database Browser
Search: [ help ]  
183544 (2003 HZ27)
Classification: Main-belt Asteroid          SPK-ID: 2183544
Ephemeris | Orbit Diagram | Orbital Elements | Mission Design | Physical Parameters | Discovery Circumstances | Close-Approach Data ]

[ show orbit diagram ]
Orbital Elements at Epoch 2458600.5 (2019-Apr-27.0) TDB
Reference: JPL 14 (heliocentric ecliptic J2000)
 Element Value Uncertainty (1-sigma)   Units 
e .07708617952796906 4.4431e-08  
a 3.061750972953174 3.0625e-08 au
q 2.825732287782172 1.4768e-07 au
i 9.748202247192385 6.8772e-06 deg
node 22.2910254698774 2.7692e-05 deg
peri 271.4798447223242 5.3579e-05 deg
M 285.9922885012246 4.5013e-05 deg
tp 2459002.779311207074
(2020-Jun-02.27931121)
0.0002452 TDB
period 1956.8305667301
5.36
2.9359e-05
8.038e-08
d
yr
n .1839709610636176 2.7602e-09 deg/d
Q 3.297769658124177 3.2986e-08 au
  Orbit Determination Parameters
   # obs. used (total)      338  
   data-arc span      8980 days (24.59 yr)  
   first obs. used      1994-10-08  
   last obs. used      2019-05-10  
   planetary ephem.      DE431  
   SB-pert. ephem.      SB431-N16  
   condition code      0  
   norm. resid. RMS      .59989  
   source      ORB  
   producer      Otto Matic  
   solution date      2019-May-30 07:51:01  

Additional Information
 Earth MOID = 1.83174 au 
 Jupiter MOID = 1.88787 au 
 T_jup = 3.207 
[ show covariance matrix ]

Ephemeris | Orbit Diagram | Orbital Elements | Mission Design | Physical Parameters | Discovery Circumstances | Close-Approach Data ]

Physical Parameter Table
Parameter Symbol Value Units Sigma Reference Notes
absolute magnitude H 15.2   n/a MPO436907  

183544 (2003 HZ27)          Discovered 2003-Apr-26 by Spacewatch at Kitt Peak
Reference: 20080420/Numbers.arcLast Updated: 2008-04-23

[ show close-approach data ]
Alternate Designations
 2003 HZ27 = 2005 US50 
Ephemeris | Orbit Diagram | Orbital Elements | Mission Design | Physical Parameters | Discovery Circumstances | Close-Approach Data ]
ABOUT SSD CREDITS/AWARDS PRIVACY/COPYRIGHT GLOSSARY LINKS
FirstGov
(server date/time)  
NASA Home Page
Site Manager:   Ryan S. Park
Webmaster  Alan B. Chamberlin